96P/Machholz 1 (2012)

Japanese version
Home page
Updated on May 20, 2012

---------------------------------------------------------------------

* Profile

* Pictures

* Orbital Elements

The following orbital elements are taken from MPC 65938:

Epoch 2012 July 12.0 TT = JDT 2456120.5
T 2012 July 14.7837 TT                                  MPC
q   0.123791             (2000.0)            P               Q
n   0.1866165      Peri.   14.7560      -0.2063775      -0.4875062
a   3.032746       Node    94.3243      +0.7892387      -0.5954422
e   0.959182       Incl.   58.2988      +0.5783690      +0.6385815
P   5.28
From 701 observations 1986-2007, mean residual 0".7.  Nongravitational
     parameters A1 = +0.00, A2 = -0.0001.

* Finding Charts

* Magnitudes Graph

        m1 = 12.7 + 5 log d + 12.0 log r

---------------------------------------------------------------------

The orbital elements are published at the MPC Ephemerides and Orbital Elements.
The charts are made with StellaNavigator Ver.8 (AstroArts).
The magnitudes graphs are made with Comet for Windows.

---------------------------------------------------------------------

Copyright(C) Seiichi Yoshida (comet@aerith.net). All rights reserved.